Regional Weather Roundup
Issued by NWS

Home | Current Version | Previous Version | Graphics & Text | Print | Product List | Glossary Off
Versions: 1 2 3 4 5 6 7 8 9 10 11 12 13 14 15 16 17 18 19 20 21 22 23 24 25 26 27 28 29 30 31 32 33 34 35 36 37 38 39 40 41 42 43 44 45 46 47 48 49 50

000
ASUS43 KBIS 050410
RWRND

NORTH DAKOTA REGIONAL WEATHER ROUNDUP
NATIONAL WEATHER SERVICE BISMARCK ND
1100 PM CDT SAT JUL 04 2015

NOTE: "FAIR" INDICATES FEW OR NO CLOUDS BELOW 12,000 FEET WITH NO
SIGNIFICANT WEATHER AND/OR OBSTRUCTIONS TO VISIBILITY.


NDZ001>003-009>011-017-050500-
NORTHWEST NORTH DAKOTA

CITY           SKY/WX    TMP DP  RH WIND       PRES   REMARKS
WILLISTON      CLEAR     73  66  78 N18       29.79R
MINOT          MOCLDY    68  62  81 SW7       29.72F
MINOT AFB      PTCLDY    67  67 100 NW9       29.73R
$$

NDZ018>021-031>035-040>046-050500-
SOUTHWEST NORTH DAKOTA

CITY           SKY/WX    TMP DP  RH WIND       PRES   REMARKS
BISMARCK       PTCLDY    77  70  79 S6        29.74S
DICKINSON      PTCLDY    69  65  86 SW6       29.76R
GARRISON         N/A     70  64  81 N5        29.75R
HETTINGER ARPT CLOUDY    74  65  73 E6        29.77S
$$

NDZ004>008-012>016-024-026-027-054-050500-
NORTHEAST NORTH DAKOTA

CITY           SKY/WX    TMP DP  RH WIND       PRES   REMARKS
GRAND FORKS    CLOUDY    76  66  71 S13       29.70F
GRND FRKS AFB  CLOUDY    76  67  73 S12       29.71F
DEVILS LAKE    CLOUDY    66  59  77 NE26G41   29.75R THUNDER
$$

NDZ022-023-025-028>030-036>039-047>053-050500-
SOUTHEAST NORTH DAKOTA

CITY           SKY/WX    TMP DP  RH WIND       PRES   REMARKS
FARGO          MOCLDY    77  65  66 S13       29.77F
JAMESTOWN      CLOUDY    74  67  78 S9        29.75F
$$



USA.gov is the U.S. government's official web portal to all federal, state and local government web resources and services.